Time,TemperatureF,DewpointF,PressureIn,WindDirection,WindDirectionDegrees,WindSpeedMPH,WindSpeedGustMPH,Humidity,HourlyPrecipIn,Conditions,Clouds,dailyrainin,SoftwareType,DateUTC
2013-10-24 00:11:00,29.0,23.0,30.25,North,360,0.0,-999.0,79,-99.99,,,-99.99,,2013-10-24 06:11:00,
2013-10-24 00:21:00,29.0,23.0,30.25,North,360,0.0,-999.0,77,-99.99,,,-99.99,,2013-10-24 06:21:00,
2013-10-24 00:52:00,30.0,24.0,30.25,NNE,26,1.0,-999.0,77,-99.99,,,-99.99,,2013-10-24 06:52:00,
2013-10-24 01:21:00,29.0,22.0,30.26,NNW,328,0.0,-999.0,76,-99.99,,,-99.99,,2013-10-24 07:21:00,
2013-10-24 01:42:00,27.0,21.0,30.26,NE,48,1.0,-999.0,78,-99.99,,,-99.99,,2013-10-24 07:42:00,
2013-10-24 01:52:00,25.0,20.0,30.26,NE,48,0.0,-999.0,82,-99.99,,,-99.99,,2013-10-24 07:52:00,
2013-10-24 02:11:00,25.0,21.0,30.26,NE,48,0.0,-999.0,85,-99.99,,,-99.99,,2013-10-24 08:11:00,
2013-10-24 02:21:00,25.0,21.0,30.26,NE,48,1.0,-999.0,84,-99.99,,,-99.99,,2013-10-24 08:21:00,
2013-10-24 02:42:00,24.0,20.0,30.24,NE,48,0.0,-999.0,84,-99.99,,,-99.99,,2013-10-24 08:42:00,
2013-10-24 02:53:00,23.0,19.0,30.25,NE,48,0.0,-999.0,85,-99.99,,,-99.99,,2013-10-24 08:53:00,
2013-10-24 03:21:00,22.0,19.0,30.26,NE,48,1.0,-999.0,87,-99.99,,,-99.99,,2013-10-24 09:21:00,
2013-10-24 03:53:00,22.0,18.0,30.27,NE,48,1.0,-999.0,83,-99.99,,,-99.99,,2013-10-24 09:53:00,
2013-10-24 04:23:00,21.0,18.0,30.27,NE,48,1.0,-999.0,87,-99.99,,,-99.99,,2013-10-24 10:23:00,
2013-10-24 04:52:00,23.0,19.0,30.27,NNW,346,0.0,-999.0,84,-99.99,,,-99.99,,2013-10-24 10:52:00,
2013-10-24 05:22:00,22.0,18.0,30.27,NNW,346,1.0,-999.0,86,-99.99,,,-99.99,,2013-10-24 11:22:00,
2013-10-24 05:42:00,21.0,17.0,30.27,NNW,346,0.0,-999.0,86,-99.99,,,-99.99,,2013-10-24 11:42:00,
2013-10-24 05:53:00,20.0,17.0,30.28,North,351,1.0,-999.0,89,-99.99,,,-99.99,,2013-10-24 11:53:00,
2013-10-24 06:12:00,21.0,18.0,30.28,NNE,18,0.0,-999.0,89,-99.99,,,-99.99,,2013-10-24 12:12:00,
2013-10-24 06:22:00,21.0,18.0,30.28,NW,320,1.0,-999.0,87,-99.99,,,-99.99,,2013-10-24 12:22:00,
2013-10-24 06:42:00,21.0,18.0,30.28,NW,320,0.0,-999.0,88,-99.99,,,-99.99,,2013-10-24 12:42:00,
2013-10-24 06:52:00,21.0,18.0,30.29,NW,320,0.0,-999.0,87,-99.99,,,-99.99,,2013-10-24 12:52:00,
2013-10-24 07:11:00,20.0,17.0,30.29,NW,320,0.0,-999.0,88,-99.99,,,-99.99,,2013-10-24 13:11:00,
2013-10-24 07:21:00,20.0,17.0,30.29,NW,320,0.0,-999.0,88,-99.99,,,-99.99,,2013-10-24 13:21:00,
2013-10-24 07:42:00,20.0,17.0,30.29,NW,320,0.0,-999.0,87,-99.99,,,-99.99,,2013-10-24 13:42:00,
2013-10-24 08:21:00,17.0,14.0,30.29,NW,320,0.0,-999.0,88,-99.99,,,-99.99,,2013-10-24 14:21:00,
2013-10-24 08:42:00,18.0,16.0,30.29,NW,320,0.0,-999.0,91,-99.99,,,-99.99,,2013-10-24 14:42:00,
2013-10-24 08:52:00,20.0,18.0,30.30,NW,320,0.0,-999.0,91,-99.99,,,-99.99,,2013-10-24 14:52:00,
2013-10-24 09:21:00,27.0,24.0,30.30,NW,320,0.0,-999.0,89,-99.99,,,-99.99,,2013-10-24 15:21:00,
2013-10-24 09:43:00,28.0,24.0,30.30,NW,320,0.0,-999.0,86,-99.99,,,-99.99,,2013-10-24 15:43:00,
2013-10-24 09:53:00,30.0,25.0,30.30,NW,320,0.0,-999.0,82,-99.99,,,-99.99,,2013-10-24 15:53:00,
2013-10-24 10:23:00,33.0,26.0,30.31,NW,320,0.0,-999.0,75,-99.99,,,-99.99,,2013-10-24 16:23:00,
2013-10-24 10:42:00,35.0,27.0,30.30,NW,320,0.0,-999.0,71,-99.99,,,-99.99,,2013-10-24 16:42:00,
2013-10-24 10:53:00,38.0,28.0,30.30,WNW,298,0.0,-999.0,66,-99.99,,,-99.99,,2013-10-24 16:53:00,
2013-10-24 11:22:00,40.0,27.0,30.28,SSW,213,0.0,-999.0,60,-99.99,,,-99.99,,2013-10-24 17:22:00,
2013-10-24 11:43:00,42.0,28.0,30.30,SE,128,0.0,-999.0,58,-99.99,,,-99.99,,2013-10-24 17:43:00,
2013-10-24 11:52:00,44.0,29.0,30.30,South,188,0.0,-999.0,55,-99.99,,,-99.99,,2013-10-24 17:52:00,
2013-10-24 12:11:00,45.0,30.0,30.29,ESE,123,2.0,-999.0,55,-99.99,,,-99.99,,2013-10-24 18:11:00,
2013-10-24 12:22:00,45.0,29.0,30.28,South,178,1.0,-999.0,53,-99.99,,,-99.99,,2013-10-24 18:22:00,
2013-10-24 12:42:00,46.0,29.0,30.28,WSW,248,1.0,-999.0,51,-99.99,,,-99.99,,2013-10-24 18:42:00,
2013-10-24 12:53:00,47.0,29.0,30.27,SSW,203,0.0,-999.0,50,-99.99,,,-99.99,,2013-10-24 18:53:00,
2013-10-24 13:11:00,49.0,30.0,30.26,West,267,0.0,-999.0,47,-99.99,,,-99.99,,2013-10-24 19:11:00,
2013-10-24 13:22:00,50.0,28.0,30.25,ESE,115,0.0,-999.0,43,-99.99,,,-99.99,,2013-10-24 19:22:00,
2013-10-24 13:43:00,52.0,30.0,30.24,SSW,199,1.0,-999.0,43,-99.99,,,-99.99,,2013-10-24 19:43:00,
2013-10-24 13:53:00,53.0,29.0,30.24,SSW,202,1.0,-999.0,39,-99.99,,,-99.99,,2013-10-24 19:53:00,
2013-10-24 14:11:00,54.0,29.0,30.23,SSE,152,1.0,-999.0,38,-99.99,,,-99.99,,2013-10-24 20:11:00,
2013-10-24 14:22:00,55.0,29.0,30.22,South,170,1.0,-999.0,36,-99.99,,,-99.99,,2013-10-24 20:22:00,
2013-10-24 14:42:00,56.0,29.0,30.21,WSW,240,1.0,-999.0,36,-99.99,,,-99.99,,2013-10-24 20:42:00,
2013-10-24 14:53:00,57.0,30.0,30.20,SSE,160,1.0,-999.0,36,-99.99,,,-99.99,,2013-10-24 20:53:00,
2013-10-24 15:12:00,58.0,30.0,30.20,SW,227,0.0,-999.0,34,-99.99,,,-99.99,,2013-10-24 21:12:00,
2013-10-24 15:21:00,59.0,29.0,30.19,WNW,294,0.0,-999.0,32,-99.99,,,-99.99,,2013-10-24 21:21:00,
2013-10-24 15:43:00,59.0,29.0,30.19,SW,217,1.0,-999.0,32,-99.99,,,-99.99,,2013-10-24 21:43:00,
2013-10-24 15:54:00,60.0,27.0,30.19,WSW,241,1.0,-999.0,28,-99.99,,,-99.99,,2013-10-24 21:54:00,
2013-10-24 16:13:00,61.0,24.0,30.19,WSW,247,1.0,-999.0,24,-99.99,,,-99.99,,2013-10-24 22:13:00,
2013-10-24 16:24:00,62.0,24.0,30.19,WSW,243,0.0,-999.0,23,-99.99,,,-99.99,,2013-10-24 22:24:00,
2013-10-24 16:43:00,62.0,25.0,30.18,WSW,239,0.0,-999.0,24,-99.99,,,-99.99,,2013-10-24 22:43:00,
2013-10-24 16:54:00,62.0,25.0,30.17,SW,234,1.0,-999.0,24,-99.99,,,-99.99,,2013-10-24 22:54:00,
2013-10-24 17:12:00,63.0,25.0,30.17,SSW,212,0.0,-999.0,23,-99.99,,,-99.99,,2013-10-24 23:12:00,
2013-10-24 17:22:00,62.0,24.0,30.17,SSW,212,1.0,-999.0,23,-99.99,,,-99.99,,2013-10-24 23:22:00,
2013-10-24 17:53:00,62.0,26.0,30.17,SSW,212,0.0,-999.0,25,-99.99,,,-99.99,,2013-10-24 23:53:00,
2013-10-24 18:12:00,61.0,28.0,30.17,SSW,212,0.0,-999.0,28,-99.99,,,-99.99,,2013-10-25 00:12:00,
2013-10-24 18:21:00,56.0,27.0,30.18,SSW,212,0.0,-999.0,33,-99.99,,,-99.99,,2013-10-25 00:21:00,
2013-10-24 21:44:00,32.0,23.0,30.22,NNE,26,1.0,-999.0,69,-99.99,,,-99.99,,2013-10-25 03:44:00,
2013-10-24 21:54:00,32.0,22.0,30.22,North,5,1.0,-999.0,67,-99.99,,,-99.99,,2013-10-25 03:54:00,
2013-10-24 22:14:00,32.0,23.0,30.22,NNE,28,2.0,-999.0,69,-99.99,,,-99.99,,2013-10-25 04:14:00,
2013-10-24 22:24:00,30.0,21.0,30.23,North,5,1.0,-999.0,69,-99.99,,,-99.99,,2013-10-25 04:24:00,
2013-10-24 22:44:00,30.0,21.0,30.23,North,5,1.0,-999.0,70,-99.99,,,-99.99,,2013-10-25 04:44:00,
2013-10-24 22:54:00,30.0,21.0,30.23,North,5,1.0,-999.0,70,-99.99,,,-99.99,,2013-10-25 04:54:00,
2013-10-24 23:03:00,30.0,21.0,30.23,North,5,1.0,-999.0,70,-99.99,,,-99.99,,2013-10-25 05:03:00,